Hauptseite
METAR-TAF:

METAR-TAF

Flughäfen :

Bohrplattform

Goeree Le, Niederlande

Breite: 51-55-33N, Länge: 3-40-12E, Höhe: 19 m

Beobachtung

Neuester Wetterbericht von vor 11 Minuten, um 06:55 UTC
Wind 13 kt aus Südwest
Temperatur 18°C
Luftfeuchtigkeit 88%
Luftdruck 1018 hPa
Sichtweite 10 km oder mehr

METAR: EHSC 180655Z AUTO 22013KT 9999 ///////// 18/16 Q1018 W18/H6

Zeit: 09:06 (07:06 UTC)


TAF: fehlend

Wetterbeobachtungen und Prognosen von mehr als 4000 Flughäfen (METAR und TAF Bericht).

Die verfügbaren Stationen werden durch gelbe und rote Markierungen auf der Karte dargestellt.

Führen Sie die Maus auf sie, um den Namen der Station zu sehen.

Darauf klicken, um die Beobachtung von Wetterbeobachtungen und Prognosen zu sehen.

Um die Karte zu ändern : klicken Sie auf den grünen Tasten mit einem schwarzen Kreuz Zum Vergrößern, auf den grünen Button mit einem Gedankenstrich zu verkleinern, oder auf die grünen Pfeile für benachbarte Karten.


METAR-TAF: